Date,TemperatureHighF,TemperatureAvgF,TemperatureLowF,DewpointHighF,DewpointAvgF,DewpointLowF,HumidityHigh,HumidityAvg,HumidityLow,PressureMaxIn,PressureMinIn,WindSpeedMaxMPH,WindSpeedAvgMPH,GustSpeedMaxMPH,PrecipitationSumIn
2012-4-18,59,59,58,59,58,58,99,99,99,30.11,30.10,7,3,8,0.00
2012-4-19,74,62,56,65,59,56,100,92,72,30.11,30.02,8,3,8,0.14
2012-4-20,81,66,58,65,61,58,100,87,57,30.06,29.89,7,2,8,0.00
2012-4-21,89,72,61,70,63,55,99,76,32,29.93,29.72,6,1,10,0.08
2012-4-22,73,63,54,64,60,46,100,90,63,29.72,29.53,13,4,13,0.15
2012-4-23,67,54,42,48,36,29,81,54,27,29.86,29.68,17,5,20,0.00
2012-4-24,72,56,40,40,35,31,77,48,22,29.95,29.85,18,4,20,0.00
2012-4-25,89,66,43,56,49,40,92,58,29,30.02,29.90,11,3,18,0.05
2012-4-26,92,78,64,63,54,44,74,48,20,30.05,29.90,17,6,21,0.04
2012-4-27,94,78,65,68,63,58,93,63,38,30.10,29.97,14,4,14,0.09
2012-4-28,97,79,61,72,65,57,100,68,27,30.16,30.06,10,2,11,0.00
2012-4-29,101,78,62,69,63,53,100,68,22,30.22,30.10,8,2,11,0.01
2012-4-30,99,78,62,74,65,62,100,69,34,30.25,30.12,8,2,16,0.00
2012-5-1,98,78,64,70,65,59,100,70,29,30.25,30.10,9,2,9,0.00
2012-5-2,100,81,68,72,64,50,100,65,19,30.23,30.10,10,3,10,0.00
2012-5-3,98,80,66,72,66,60,100,67,30,30.22,30.10,10,2,11,0.00
2012-5-4,92,78,67,72,66,62,97,71,42,30.16,30.01,12,2,12,0.00
2012-5-5,100,82,65,75,66,58,100,63,25,30.03,29.84,15,3,17,0.00
2012-5-6,89,78,67,68,66,63,89,67,44,30.05,29.92,12,4,12,0.02
2012-5-7,91,76,66,68,66,62,100,75,42,30.07,29.95,10,3,13,0.00
2012-5-8,93,74,66,74,68,65,100,86,43,30.02,29.88,10,2,11,0.86
2012-5-9,87,71,65,75,68,64,100,93,57,29.94,29.72,17,2,21,2.07
2012-5-10,87,69,54,64,52,43,100,62,23,30.00,29.84,12,2,12,0.02
2012-5-11,87,70,54,60,52,46,100,59,28,30.26,30.00,13,3,14,0.00
2012-5-12,88,72,58,66,59,54,100,67,34,30.36,30.24,9,1,10,0.02
2012-5-13,77,67,59,70,65,57,100,92,74,30.29,30.12,4,1,8,0.22
2012-5-14,87,73,66,75,69,65,100,89,58,30.12,29.94,10,2,11,0.75
2012-5-15,96,76,64,74,67,62,99,79,35,30.06,29.92,8,2,10,0.02
2012-5-16,92,78,65,73,68,65,100,75,44,30.02,29.92,7,1,7,0.10
2012-5-17,85,71,63,69,65,62,100,84,50,30.04,29.94,14,2,14,0.51
2012-5-18,77,68,60,67,61,54,100,83,47,30.13,30.01,14,4,17,0.06
2012-5-19,85,70,57,62,54,43,100,63,24,30.18,30.07,13,4,15,0.00
2012-5-20,88,73,57,58,53,44,90,55,23,30.15,30.04,21,4,21,0.02
2012-5-21,94,76,60,67,61,57,97,65,31,30.09,29.92,11,2,11,0.19
2012-5-22,94,75,63,68,64,61,100,73,35,29.96,29.83,10,2,11,0.11
2012-5-23,95,77,59,71,62,56,99,67,28,29.95,29.86,9,2,9,0.14
2012-5-24,99,80,62,75,65,58,100,68,27,30.06,29.95,5,1,7,0.14
2012-5-25,98,80,65,74,67,63,100,69,32,30.17,30.06,8,2,9,0.10
2012-5-26,96,82,66,73,68,65,100,66,37,30.17,30.05,14,3,14,0.11
2012-5-27,93,80,69,72,69,64,92,69,44,30.12,30.02,14,5,16,0.19
2012-5-28,90,77,71,77,73,70,100,87,57,30.08,29.98,14,4,18,0.37
2012-5-29,84,74,69,77,72,69,100,96,75,30.02,29.83,14,3,14,0.08
2012-5-30,95,78,67,78,71,63,100,82,38,29.91,29.77,11,3,11,0.05
2012-5-31,101,83,64,79,68,56,100,68,26,29.95,29.84,9,2,18,0.06
2012-6-1,91,76,66,78,71,66,100,85,56,29.95,29.79,12,2,13,0.92
2012-6-2,86,73,62,70,59,47,100,69,26,29.99,29.85,10,2,12,0.03
2012-6-3,92,76,59,64,57,50,83,54,30,30.06,29.92,14,3,17,0.02
2012-6-4,90,76,69,73,69,64,100,81,52,29.92,29.77,14,2,14,0.57
2012-6-5,76,69,62,69,65,62,100,89,69,29.93,29.75,11,2,11,0.49
2012-6-6,83,68,61,68,64,60,100,90,55,30.04,29.87,11,2,11,0.70
2012-6-7,92,73,58,68,62,58,99,73,35,30.11,30.02,6,2,9,0.00
2012-6-8,96,76,59,68,62,56,100,68,28,30.13,30.03,8,1,11,0.11
2012-6-9,96,79,61,71,62,57,100,63,29,30.15,30.06,8,1,11,0.26
2012-6-10,88,76,71,78,71,63,100,87,66,30.19,30.08,7,2,7,1.32
2012-6-11,80,72,68,78,71,67,100,99,90,30.17,30.08,14,2,14,0.85
2012-6-12,95,78,68,77,73,68,100,86,52,30.11,29.91,16,2,17,0.92
2012-6-13,96,81,68,77,71,68,100,76,44,30.02,29.93,8,2,10,0.06
2012-6-14,91,78,68,70,65,60,100,68,37,30.16,30.01,12,3,12,0.11
2012-6-15,90,78,66,68,62,56,97,62,34,30.24,30.13,11,4,16,0.14
2012-6-16,63,63,63,59,59,59,87,86,86,30.19,30.18,0,0,0,0.00
2012-6-17,95,76,58,66,61,58,100,65,32,30.22,30.05,8,2,8,0.21
2012-6-18,99,78,62,71,64,61,100,67,30,30.17,30.09,8,1,8,0.35
2012-6-19,96,80,61,74,65,59,100,66,29,30.24,30.16,6,1,11,0.14
2012-6-20,99,82,65,76,68,65,100,68,37,30.23,29.77,8,2,8,0.05
2012-6-21,100,81,66,74,69,66,100,71,36,30.13,29.74,5,1,7,0.21
2012-6-22,101,83,63,74,68,63,100,66,31,30.04,29.91,2,0,9,0.24
2012-6-23,105,86,68,78,71,65,100,66,29,30.04,29.94,2,0,8,0.16
2012-6-24,100,84,72,80,74,66,100,75,33,30.05,29.92,3,0,8,0.37
2012-6-25,99,80,70,77,73,70,100,81,48,29.97,29.76,3,0,8,0.10
2012-6-26,88,78,67,73,65,58,99,69,40,29.90,29.76,6,2,14,0.00
2012-6-27,94,76,60,60,56,50,86,56,23,30.06,29.90,5,1,14,0.00
2012-6-28,107,84,61,71,61,56,100,55,21,30.12,29.99,3,1,10,0.00
2012-6-29,116,93,73,73,66,51,81,47,13,29.99,29.84,3,1,7,0.00
2012-6-30,116,93,72,78,70,60,97,55,18,29.95,29.86,2,0,9,0.02
2012-7-1,113,89,76,83,74,40,100,65,13,30.19,29.90,6,1,23,0.03
2012-7-2,103,86,75,72,68,65,81,57,31,30.18,30.01,6,1,14,0.06
2012-7-3,110,87,73,79,71,66,95,63,25,30.08,29.98,4,1,14,0.00
2012-7-4,105,87,69,75,70,65,100,64,30,30.11,29.97,4,1,12,0.00
2012-7-5,108,88,70,76,71,64,100,64,26,30.10,29.90,5,1,14,1.02
2012-7-6,104,85,70,78,74,69,100,74,35,30.07,29.97,3,0,8,0.02
2012-7-7,104,88,72,77,74,70,100,67,35,30.11,30.00,2,1,11,0.02
2012-7-8,105,90,75,78,73,68,93,61,32,30.10,29.93,4,1,14,0.00
2012-7-9,107,89,74,77,72,69,97,61,31,30.02,29.60,4,1,14,0.08
2012-7-10,106,84,71,79,74,70,100,76,33,30.14,29.54,8,1,22,0.56
2012-7-11,98,80,71,77,73,70,100,82,46,30.15,30.03,4,1,18,0.24
2012-7-12,92,78,72,78,74,72,100,88,59,30.18,30.11,4,1,11,0.00
2012-7-13,92,80,74,81,75,73,100,88,63,30.21,30.13,3,1,8,0.00
2012-7-14,100,84,73,81,75,72,100,78,41,30.25,30.14,3,0,12,0.05
2012-7-15,102,84,70,80,72,66,100,72,33,30.26,30.11,3,1,8,0.02
2012-7-16,101,82,70,80,74,70,100,79,41,30.18,30.00,2,0,8,0.06
2012-7-17,98,81,69,79,73,69,100,79,42,30.08,29.96,2,0,7,0.00
2012-7-18,103,84,73,77,74,70,100,74,40,30.11,29.98,5,1,11,0.02
2012-7-19,99,82,71,77,74,70,100,78,46,30.14,30.04,5,1,14,0.00
2012-7-20,98,84,73,78,74,72,100,76,44,30.08,29.67,4,2,20,0.02
2012-7-21,94,82,75,77,75,73,93,79,55,30.16,29.67,3,1,12,0.00
2012-7-22,103,86,72,81,75,71,100,74,36,30.24,30.14,3,0,11,0.02
2012-7-23,104,85,74,83,76,72,100,76,37,30.26,30.11,3,0,11,0.43
2012-7-24,103,88,76,79,75,70,97,68,36,30.15,29.95,8,1,24,0.00
2012-7-25,105,88,75,78,74,68,100,67,32,30.05,29.95,4,1,13,0.02
2012-7-26,108,92,76,82,75,68,100,63,29,30.00,29.90,4,1,13,0.00
2012-7-27,104,86,75,79,74,72,93,70,41,30.03,29.94,4,1,14,0.13
2012-7-28,104,86,73,80,75,66,100,74,31,30.08,29.95,2,1,10,0.00
2012-7-29,99,83,74,80,75,71,100,78,45,30.05,29.95,3,1,10,0.24
2012-7-30,98,80,70,78,73,70,100,83,46,30.04,29.94,4,1,11,0.46
2012-7-31,94,79,68,78,73,68,100,84,54,30.04,29.95,2,0,9,0.05
2012-8-1,101,83,73,79,73,68,99,77,35,30.00,29.90,3,1,9,0.05
2012-8-2,104,84,72,80,74,68,100,75,37,30.16,29.91,6,1,15,0.02
2012-8-3,102,83,67,76,72,67,100,73,35,30.27,30.14,3,1,14,0.33
2012-8-4,102,82,71,81,74,70,100,79,41,30.40,30.25,2,0,12,0.05
2012-8-5,92,77,72,79,74,72,100,90,60,30.41,30.32,3,0,11,0.38
2012-8-6,96,78,72,80,75,71,100,92,50,30.37,30.24,3,0,11,2.41
2012-8-7,97,79,70,81,75,69,100,89,50,30.28,30.16,4,0,14,0.40
2012-8-8,97,80,70,80,74,70,100,85,49,30.25,30.14,2,0,7,0.00
2012-8-9,98,81,71,81,75,71,100,83,50,30.23,30.06,4,0,13,0.16
2012-8-10,87,78,72,78,74,72,100,90,65,30.13,30.06,3,1,12,0.30
2012-8-11,82,74,69,80,73,69,100,98,88,30.18,30.07,3,0,9,2.10
2012-8-12,96,81,70,78,71,62,100,76,34,30.24,30.15,2,0,9,0.00
2012-8-13,98,80,64,79,66,58,100,68,29,30.27,30.17,2,0,10,0.00
2012-8-14,96,79,67,77,70,64,100,76,44,30.22,30.10,5,1,24,0.57
2012-8-15,94,80,69,79,73,68,99,82,51,30.20,30.13,3,1,9,0.01
2012-8-16,99,82,70,73,71,65,100,75,34,30.26,30.15,3,0,8,0.00
2012-8-17,98,81,69,78,72,69,100,79,40,30.23,30.05,4,1,10,0.03
2012-8-18,96,81,69,78,73,68,100,79,48,30.12,30.03,3,0,8,0.00
2012-8-19,88,76,71,78,74,71,100,92,60,30.14,30.04,3,0,10,0.97
2012-8-20,90,78,71,76,73,70,100,86,57,30.18,30.07,3,1,9,0.53
2012-8-21,96,77,69,79,72,69,100,87,45,30.25,30.16,2,0,11,0.62
2012-8-22,91,76,69,76,72,69,100,87,55,30.31,30.22,2,0,8,0.00
2012-8-23,89,76,68,75,71,68,100,86,58,30.34,30.26,3,1,11,0.00
2012-8-24,92,76,68,74,69,63,100,80,41,30.34,30.26,4,1,11,0.00
2012-8-25,94,76,62,71,64,58,99,73,31,30.37,30.28,4,1,11,0.00
2012-8-26,94,78,63,71,67,63,100,74,41,30.39,30.27,3,1,11,0.02
2012-8-27,95,78,67,77,72,66,100,85,55,30.32,30.20,4,1,13,0.19
2012-8-28,85,77,74,81,76,74,100,97,80,30.24,30.16,2,0,6,1.29
2012-8-29,96,80,72,82,75,71,100,86,53,30.24,30.14,2,0,8,0.13
2012-8-30,90,78,72,79,75,71,100,91,65,30.38,30.20,1,0,5,0.00
2012-8-31,100,83,71,80,75,71,100,79,44,30.46,30.33,3,0,7,0.00
2012-9-1,101,84,71,83,76,71,100,79,44,30.40,30.25,3,0,9,0.00
2012-9-2,101,84,72,82,75,72,100,78,43,30.29,30.16,2,0,11,0.00
2012-9-3,98,81,73,81,76,73,100,86,52,30.24,30.14,3,0,14,0.16
2012-9-4,92,78,73,80,75,72,100,92,64,30.21,30.12,4,0,10,0.22
2012-9-5,96,80,71,78,74,71,100,84,51,30.21,30.11,3,1,11,0.02
2012-9-6,95,80,71,78,75,71,100,85,58,30.22,30.10,2,1,9,0.08
2012-9-7,99,82,73,83,76,73,100,83,45,30.18,30.07,3,0,11,0.03
2012-9-8,96,80,72,79,74,72,100,86,52,30.08,29.93,4,1,17,0.81
2012-9-9,88,74,62,72,65,58,100,76,38,30.21,30.01,4,2,11,0.02
2012-9-10,89,72,59,63,59,54,100,71,30,30.35,30.21,4,1,11,0.00
2012-9-11,91,71,58,67,62,58,100,75,34,30.49,30.34,4,1,8,0.00
2012-9-12,87,71,58,65,60,56,100,71,35,30.55,30.44,4,1,12,0.00
2012-9-13,86,72,57,67,63,57,100,76,51,30.52,30.41,5,1,14,0.02
2012-9-14,92,75,65,70,64,59,95,71,41,30.45,30.34,3,1,11,0.00
2012-9-15,95,76,61,71,65,59,100,73,31,30.40,30.28,2,0,8,0.00
2012-9-16,96,77,63,75,68,63,100,77,40,30.35,30.22,2,0,6,0.00
2012-9-17,94,78,67,78,72,67,100,84,50,30.29,30.11,2,0,11,0.00
2012-9-18,81,75,69,77,74,69,100,95,78,30.11,29.94,5,1,16,0.61
2012-9-19,86,73,66,69,66,63,100,81,48,30.32,30.06,4,2,13,0.02
2012-9-20,91,71,59,68,63,59,100,80,40,30.35,30.25,3,1,8,0.00
2012-9-21,94,74,61,76,66,60,100,79,37,30.30,30.20,2,0,5,0.02
2012-9-22,93,76,64,74,68,64,100,78,43,30.27,30.15,5,1,11,0.00
2012-9-23,90,73,57,69,56,44,93,62,21,30.33,30.20,4,1,10,0.00
2012-9-24,85,66,53,58,55,50,97,69,36,30.40,30.29,5,1,15,0.00
2012-9-25,90,69,53,65,57,53,100,71,33,30.44,30.37,3,0,9,0.00
2012-9-26,95,71,53,70,60,53,100,72,32,30.44,30.35,3,0,8,0.00
2012-9-27,94,74,62,76,66,62,100,80,36,30.44,30.29,3,0,9,0.00
2012-9-28,93,76,63,75,68,63,100,80,42,30.34,30.19,3,0,11,0.03
2012-9-29,91,76,66,73,69,66,100,82,52,30.24,30.06,2,0,6,0.00
2012-9-30,71,69,67,71,69,67,100,99,96,30.11,30.03,2,1,8,0.32
2012-10-1,93,77,68,80,72,68,100,87,54,30.05,29.92,2,1,9,0.38
2012-10-2,91,79,72,77,73,68,100,83,49,30.19,29.94,3,1,10,0.03
2012-10-3,87,74,67,72,69,67,100,86,53,30.42,30.19,2,0,8,0.06
2012-10-4,89,72,65,74,68,65,100,89,51,30.49,30.37,2,0,4,0.46
2012-10-5,86,70,62,70,65,62,100,86,52,30.41,30.24,2,0,4,0.00
2012-10-6,92,74,60,72,64,60,100,76,35,30.25,30.10,3,1,10,0.00
2012-10-7,88,73,62,70,65,61,100,80,47,30.28,30.14,4,1,12,0.03
2012-10-8,63,58,53,60,54,51,100,88,79,30.36,30.25,4,2,11,0.00
2012-10-9,73,57,46,54,51,46,100,84,48,30.38,30.28,4,2,12,0.00
2012-10-10,81,60,45,62,54,44,100,84,43,30.35,30.24,4,1,14,0.02
2012-10-11,84,62,49,55,51,49,99,74,32,30.50,30.35,4,1,11,0.00
2012-10-12,89,68,50,64,56,50,100,73,36,30.47,30.35,3,1,9,0.00
2012-10-13,81,66,56,59,56,51,89,72,45,30.61,30.46,4,1,12,0.00
2012-10-14,86,69,54,69,61,52,100,80,48,30.52,30.25,2,0,12,0.00
2012-10-15,85,70,59,72,63,48,100,81,48,30.26,29.99,4,1,14,0.00
2012-10-16,82,62,45,50,46,38,97,62,23,30.20,30.08,4,1,11,0.00
2012-10-17,84,61,49,58,49,39,100,71,21,30.21,30.08,3,0,8,0.00
2012-10-18,87,68,52,68,61,52,100,82,45,30.11,29.98,3,0,11,0.22
2012-10-19,83,66,48,66,49,31,99,66,15,30.07,29.95,5,1,15,0.27
2012-10-20,80,59,43,53,46,42,100,70,29,30.16,30.03,4,1,15,0.00
2012-10-21,82,60,46,50,47,43,100,70,27,30.36,30.16,5,1,11,0.00
2012-10-22,86,62,45,60,49,45,100,71,26,30.45,30.33,2,0,8,0.00
2012-10-23,90,64,45,61,49,39,100,67,17,30.42,30.30,2,0,7,0.00
2012-10-24,90,66,51,65,57,50,100,76,35,30.41,30.28,3,0,9,0.00
2012-10-25,88,70,56,68,62,55,100,79,40,30.32,30.22,4,1,14,0.00
2012-10-26,82,69,60,66,61,56,100,78,43,30.25,30.07,5,2,16,0.00
2012-10-27,75,68,63,64,61,56,96,81,63,30.08,29.86,7,4,20,0.00
2012-10-28,81,66,55,58,54,43,89,67,36,29.92,29.81,5,3,16,0.00
2012-10-29,68,54,43,43,38,33,90,56,31,29.93,29.78,8,3,22,0.00
2012-10-30,64,52,44,36,28,22,60,41,26,29.94,29.75,6,3,24,0.02
2012-10-31,71,55,44,32,23,6,59,33,10,30.05,29.93,6,2,21,0.00
2012-11-1,70,58,42,28,18,9,46,23,10,30.12,30.00,6,1,21,0.00
2012-11-2,80,58,41,47,35,22,80,44,21,30.16,30.01,5,1,17,0.02
2012-11-3,84,60,39,49,42,32,100,59,17,30.28,30.14,2,0,9,0.00
2012-11-4,87,68,53,61,56,48,100,69,31,30.18,29.95,5,1,16,0.00
2012-11-5,72,57,49,54,44,40,100,68,32,30.08,29.95,5,1,13,0.00
2012-11-6,54,47,37,43,39,33,93,75,50,30.04,29.94,6,2,17,0.03
2012-11-7,48,42,37,45,40,35,100,92,86,30.01,29.90,2,1,8,0.16
2012-11-8,72,50,37,46,37,29,99,70,22,30.17,30.00,4,1,13,0.02
2012-11-9,78,52,33,49,34,23,100,62,13,30.31,30.16,2,0,10,0.00
2012-11-10,82,56,34,52,36,25,100,60,12,30.40,30.27,3,0,8,0.00
2012-11-11,82,60,39,60,50,37,96,73,39,30.47,30.36,4,1,11,0.00
2012-11-12,79,65,56,69,61,56,100,89,65,30.38,30.19,3,1,11,0.03
2012-11-13,63,58,51,63,55,44,100,91,76,30.33,30.18,5,2,14,0.00
2012-11-14,54,50,46,45,41,38,91,73,57,30.41,30.26,6,3,16,0.05
2012-11-15,48,44,41,47,43,40,100,97,83,30.31,30.21,5,2,13,1.51
2012-11-16,66,49,41,47,43,40,100,82,45,30.34,30.25,4,2,13,0.00
2012-11-17,63,50,38,41,34,26,96,60,27,30.42,30.33,7,3,21,0.00
2012-11-18,60,54,49,48,43,35,81,67,52,30.39,30.28,6,4,17,0.00
2012-11-19,73,58,50,52,50,47,94,77,47,30.30,30.18,6,3,17,0.00
2012-11-20,72,54,42,52,47,42,100,80,43,30.19,30.06,4,1,12,0.43
2012-11-21,72,52,40,51,42,37,99,74,28,30.18,30.08,5,1,12,0.00
2012-11-22,73,52,38,39,35,28,90,59,20,30.27,30.17,4,1,13,0.00
2012-11-23,77,55,34,51,42,34,100,66,29,30.19,29.97,5,1,14,0.00
2012-11-24,65,50,35,51,32,22,89,55,22,30.13,29.98,4,1,12,0.00
2012-11-25,67,45,32,29,23,14,70,46,13,30.22,30.08,3,1,9,0.00
2012-11-26,79,52,32,33,24,13,76,41,10,30.24,30.13,4,0,13,0.00
2012-11-27,56,50,41,51,42,28,100,76,47,30.22,30.10,4,0,9,0.30
2012-11-28,65,50,35,51,44,35,100,84,46,30.40,30.18,4,1,9,0.02
2012-11-29,69,46,31,50,33,26,99,70,20,30.48,30.37,4,1,11,0.24
2012-11-30,74,52,35,52,43,32,96,75,42,30.42,30.30,2,0,8,0.00
2012-12-1,76,58,48,56,51,47,100,81,48,30.40,30.31,4,0,9,0.00
2012-12-2,83,62,50,61,55,50,100,82,42,30.40,30.27,3,0,10,0.00
2012-12-3,83,61,50,69,55,50,100,84,36,30.35,30.26,2,0,8,0.02
2012-12-4,80,59,48,64,56,48,100,90,52,30.37,30.25,3,0,8,0.03
2012-12-5,79,64,54,61,58,54,100,83,50,30.25,30.12,5,1,13,0.00
2012-12-6,68,57,49,59,51,42,97,80,56,30.22,30.14,4,2,12,0.00
2012-12-7,64,52,45,54,47,41,100,82,67,30.17,30.01,4,1,12,0.03
2012-12-8,76,55,42,61,51,42,100,88,53,30.11,30.03,2,0,8,0.00
2012-12-9,77,61,52,67,60,51,100,96,69,30.14,30.00,3,0,6,0.01
2012-12-10,78,64,56,64,60,55,100,89,56,30.00,29.77,5,1,14,0.02
2012-12-11,68,58,52,60,51,43,100,78,53,30.13,29.78,3,1,11,0.02
2012-12-12,52,48,42,47,44,41,100,87,69,30.29,30.09,5,2,15,0.86
2012-12-13,58,44,38,43,41,37,100,88,55,30.36,30.22,20,3,51,0.03
2012-12-14,68,46,34,44,38,34,100,79,35,30.40,30.23,4,1,8,0.00
2012-12-15,67,50,37,54,43,36,100,78,34,30.26,30.11,2,0,7,0.00
2012-12-16,70,59,53,64,58,53,100,97,78,30.10,29.88,2,0,10,0.03
2012-12-17,63,58,55,62,58,55,99,99,99,29.93,29.70,4,1,15,0.81
2012-12-18,66,56,40,59,46,32,100,74,28,30.02,29.76,7,2,20,0.00
2012-12-19,77,54,39,44,39,34,90,62,29,30.13,30.01,5,1,14,0.00
2012-12-20,72,54,37,64,48,32,100,83,59,30.11,29.67,11,2,30,0.54
2012-12-21,52,44,38,33,26,19,64,50,35,30.03,29.82,10,5,31,0.14
2012-12-22,63,45,31,21,18,9,58,37,12,30.19,30.03,4,2,14,0.00
2012-12-23,64,47,29,34,26,18,69,45,21,30.21,30.08,3,1,10,0.00
2012-12-24,52,47,42,50,41,32,100,82,55,30.11,29.90,5,0,11,0.69
2012-12-25,53,51,50,53,51,50,100,99,99,30.08,29.91,5,2,17,0.75
2012-12-26,66,53,38,63,47,32,99,80,47,29.92,29.56,8,4,24,0.88
2012-12-27,59,42,34,36,34,31,97,74,39,30.08,29.85,5,2,14,0.00
2012-12-28,60,44,32,42,37,31,100,79,42,30.15,29.93,3,1,8,0.00
2012-12-29,55,45,37,48,40,32,100,86,64,30.11,29.74,7,3,23,0.78
2012-12-30,61,40,27,32,26,19,96,64,21,30.43,30.11,4,1,14,0.00
2012-12-31,63,46,26,46,35,26,100,72,28,30.44,30.19,4,1,15,0.00
2013-1-1,70,54,44,56,50,42,100,87,60,30.19,29.93,3,1,11,0.11